Wind_Speed
50 51 50 51 50 53 55 56 53 56 56 58 59 57 58 61 64 65 65 67 68 69 68 67 68 66 67 66 63 61 59 60 62 69 57 56 55 57 54 51 54 52 46 44
49 51 52 53 53 54 56 54 55 56 58 53 50 52 54 56 57 59 56 61 60 55 55 54 54 57 59 59 57 56 56 63 64 60 56 49 52 56 54 53 53 43 48 47
51 52 56 59 53 54 55 53 51 53 50 45 42 37 39 43 44 43 45 47 46 41 40 42 46 50 52 56 57 55 51 56 58 56 51 51 55 54 63 52 45 44 40 36
51 52 58 52 46 47 46 44 41 40 36 35 35 34 33 37 38 41 42 44 45 44 43 45 42 42 44 47 50 49 50 49 46 43 47 47 57 56 41 38 29 35 33 30
50 50 51 44 38 43 40 42 43 41 36 33 29 36 32 34 33 32 36 37 37 43 43 41 37 33 38 34 43 47 48 49 58 47 61 55 37 34 33 32 32 33 38 38
46 48 49 34 37 35 33 42 32 28 31 28 29 29 29 25 25 30 29 25 27 35 40 45 25 27 33 30 31 42 45 48 48 41 30 32 34 34 36 34 40 39 41 41
39 40 42 32 30 29 34 31 27 28 30 31 29 29 26 23 24 28 25 23 18 21 26 25 29 23 15 9 13 18 32 27 24 28 30 32 34 32 29 34 37 36 34 33
35 35 37 30 29 30 30 23 25 31 32 33 31 26 23 22 19 22 20 22 24 27 28 28 27 23 26 14 8 5 11 22 23 29 30 30 24 24 25 26 26 26 28 27
41 40 36 33 34 27 35 37 32 27 25 21 31 27 26 23 24 23 21 25 27 30 29 27 28 27 28 26 19 13 10 8 14 25 19 16 21 22 25 28 26 19 19 22
36 34 31 33 36 35 39 34 26 27 30 29 30 26 27 28 29 29 27 28 28 31 33 32 31 31 27 30 32 25 23 20 16 23 24 24 27 22 23 23 18 20 23 27
37 31 34 32 32 32 34 37 34 33 32 31 31 28 30 31 32 32 36 36 36 33 34 35 36 35 35 33 30 28 24 19 19 26 31 26 22 21 22 20 21 23 25 27
32 30 34 34 35 34 35 36 34 33 32 32 31 32 31 33 36 38 39 40 41 40 41 40 36 38 37 37 29 28 28 28 25 16 19 20 22 26 28 30 30 28 30 32
32 33 34 33 30 35 31 34 31 29 31 30 30 31 31 34 36 40 46 52 56 56 54 50 47 41 41 38 35 32 31 31 31 27 25 26 29 30 30 30 30 34 35 35
34 30 26 23 26 29 28 24 25 28 30 28 25 25 29 35 41 41 28 31 34 34 37 40 43 45 43 39 39 32 29 29 31 33 33 34 34 31 32 33 35 37 36 37
25 23 23 27 23 20 21 23 25 25 22 20 23 28 33 34 24 32 30 31 30 18 14 14 17 21 23 26 27 28 28 27 27 29 31 32 33 34 37 38 38 39 38 36
13 16 21 24 26 23 23 21 18 18 19 22 26 29 26 28 30 29 27 23 24 16 15 15 17 20 22 24 28 28 28 28 29 31 33 36 39 41 42 42 41 40 36 36
15 13 11 11 12 11 15 19 20 23 25 26 27 25 25 24 26 24 22 21 19 17 15 15 15 16 19 21 23 26 28 30 33 35 38 41 42 43 43 43 41 39 35 35
8 5 7 9 14 20 25 29 29 27 24 25 24 24 23 25 23 22 22 21 19 18 17 17 17 17 19 22 25 27 28 30 32 33 34 34 35 35 35 35 35 34 34 37
6 8 13 17 21 24 28 29 28 24 21 20 22 22 23 21 18 17 15 12 9 9 10 12 15 17 19 20 21 24 27 29 31 33 35 35 35 35 35 35 36 37 37 36
11 12 13 13 8 9 11 12 14 14 15 19 20 19 15 12 8 7 6 7 8 7 8 8 8 9 10 12 13 15 16 18 21 27 34 36 37 36 35 36 37 36 34 33
16 16 14 10 9 7 6 7 8 10 14 15 14 11 9 8 6 7 7 8 9 9 10 12 13 12 12 12 13 15 18 19 20 22 24 25 30 33 33 32 33 33 32 31
18 16 16 15 12 11 9 9 10 10 10 10 8 9 7 6 7 8 10 11 12 13 14 13 11 11 12 14 17 19 21 23 24 25 26 26 26 27 29 29 30 31 31 31
15 13 13 14 13 12 12 12 11 10 7 7 9 10 9 9 10 11 13 15 15 14 13 12 12 13 15 18 21 23 25 27 27 28 27 25 24 23 24 25 26 25 25 26
16 15 15 15 16 16 16 14 12 10 9 10 12 12 11 12 14 15 17 16 14 12 13 14 15 16 19 22 25 27 29 29 28 27 25 23 23 21 23 22 20 21 23 24
16 16 16 17 17 17 15 14 12 11 12 12 12 12 13 14 15 15 15 12 11 13 15 15 16 19 23 26 29 30 30 29 27 25 22 22 22 21 21 21 21 21 22 21
16 16 17 17 15 14 13 12 12 13 13 12 11 10 11 13 14 12 11 11 13 15 16 15 18 22 26 28 30 29 29 28 25 23 21 19 19 19 19 18 19 19 20 20
17 16 15 13 13 13 13 14 15 15 15 13 10 10 12 12 10 10 11 12 15 16 15 17 21 24 27 28 27 26 25 23 21 20 18 18 17 16 15 15 16 17 19 21
Wind_Direction
255 256 251 247 250 263 266 269 270 271 275 277 277 276 276 277 278 279 279 280 279 281 281 278 278 273 269 267 267 266 263 256 257 259 261 263 266 269 270 272 271 270 253 261
257 261 262 263 258 259 261 270 273 275 276 281 281 281 282 282 285 287 290 289 290 284 278 274 275 274 271 267 262 264 263 261 262 265 267 264 266 264 271 265 265 249 256 264
257 261 265 262 261 269 274 273 276 276 280 276 280 283 284 285 286 285 285 285 282 274 269 271 269 270 270 269 265 264 256 256 260 262 265 265 261 263 261 258 247 249 251 247
261 260 263 267 269 272 268 269 272 277 275 279 277 276 278 277 279 276 277 275 275 275 272 272 269 267 276 262 257 250 253 252 255 250 259 258 258 259 245 241 244 243 243 252
265 263 268 266 269 269 272 270 279 279 269 268 270 265 275 279 278 280 280 286 290 288 274 271 275 273 277 284 253 242 250 248 246 245 253 253 244 231 234 242 251 256 258 262
267 267 267 273 267 268 265 274 288 278 268 268 259 262 276 276 275 282 292 299 290 294 281 278 277 269 280 272 257 246 243 253 253 256 238 231 224 231 241 246 251 253 254 257
262 265 270 273 259 261 266 285 269 266 250 246 254 262 261 266 271 279 286 288 303 325 306 286 271 267 277 263 283 270 248 230 228 225 229 234 238 240 231 231 237 244 254 261
256 258 261 264 257 261 265 249 252 246 264 255 249 259 252 252 262 270 276 285 294 304 315 321 319 277 263 277 247 244 249 225 233 232 236 233 224 232 245 256 261 269 274 273
258 262 261 258 257 249 245 245 250 264 251 249 248 247 245 244 252 264 282 282 284 293 301 309 316 311 306 279 263 245 278 245 230 226 211 252 247 228 251 264 274 273 266 269
256 259 255 251 251 251 242 246 254 264 255 244 244 243 244 248 252 260 275 284 280 281 287 294 299 305 305 298 295 292 266 258 247 230 238 238 227 259 281 277 255 261 270 273
256 252 247 246 249 251 251 256 259 258 260 236 238 245 244 250 256 262 274 286 290 282 278 281 285 290 292 298 298 288 279 279 280 236 239 230 255 275 278 259 273 279 277 278
249 245 246 245 249 253 251 258 251 250 252 244 242 246 249 257 265 272 278 282 281 278 274 274 273 277 282 286 290 284 274 270 260 252 244 268 270 266 272 279 285 284 283 282
241 241 244 248 244 244 241 246 240 237 240 242 249 252 259 267 276 281 283 281 278 274 270 268 265 265 271 275 283 278 276 268 271 277 269 268 274 277 275 273 279 282 282 280
233 237 235 236 238 228 232 244 244 232 239 250 253 262 270 276 282 294 301 305 303 284 271 266 265 269 272 271 277 271 272 269 264 266 269 269 272 273 274 278 280 281 279 275
229 226 210 217 224 219 221 228 240 245 243 252 262 273 282 292 285 295 291 296 296 294 286 284 273 261 259 261 261 265 266 268 268 267 267 269 270 273 275 278 279 277 276 275
238 212 212 218 225 230 246 230 226 237 250 267 275 285 283 281 291 295 296 288 300 292 278 278 261 253 248 250 259 265 267 267 268 269 271 272 273 275 277 278 278 274 272 271
141 137 157 184 202 216 227 236 250 258 260 268 281 275 280 288 294 295 293 295 296 291 283 275 268 264 261 258 257 262 265 267 269 272 274 274 275 275 274 273 270 265 267 270
167 187 223 249 257 257 249 242 246 255 266 276 277 275 282 291 288 290 294 292 289 285 281 275 271 272 275 267 264 264 267 269 270 272 274 275 275 273 273 269 266 265 265 266
209 235 246 250 257 268 265 260 259 265 271 266 268 277 285 283 284 290 296 300 302 299 291 281 276 273 270 271 269 269 269 271 271 272 271 272 273 272 270 269 267 266 266 267
238 253 269 277 293 318 291 231 226 238 252 259 269 270 271 275 275 282 287 293 306 309 312 308 303 298 293 291 287 287 289 288 286 279 273 271 271 273 272 272 268 267 264 266
248 255 243 241 256 276 258 248 245 253 260 260 253 252 248 261 266 277 288 294 296 299 303 307 304 298 303 300 305 302 297 297 298 296 293 288 277 272 273 273 270 266 265 267
251 256 241 240 240 261 265 270 278 275 251 242 233 237 260 262 275 288 295 300 299 298 299 302 300 298 302 305 307 305 303 302 300 298 296 295 289 279 273 272 271 270 267 266
240 240 236 232 243 256 269 279 278 262 245 233 242 252 263 264 281 291 300 303 302 297 299 299 298 299 303 307 309 309 307 304 301 300 299 298 295 287 281 280 276 275 276 276
245 245 245 248 256 266 274 270 260 248 246 250 251 256 266 273 283 295 303 303 299 295 298 300 300 305 310 312 313 311 308 305 302 301 300 295 293 293 283 288 290 285 282 279
249 250 260 264 270 273 264 248 247 245 250 251 256 262 271 279 287 296 298 294 293 297 301 304 307 312 316 317 316 314 310 307 303 299 294 293 292 294 294 291 289 289 288 288
262 265 267 271 262 251 242 239 243 250 243 244 257 270 279 286 290 290 288 289 295 301 304 306 312 318 320 321 320 318 314 311 305 300 291 290 294 297 295 292 291 292 291 291
262 261 255 257 249 239 246 253 249 240 231 239 262 273 288 287 281 282 287 295 302 305 305 310 318 322 324 326 325 323 320 317 311 306 298 290 296 298 299 299 300 300 300 300
Height
5618 5616 5615 5618 5619 5622 5616 5614 5611 5616 5614 5618 5621 5619 5618 5615 5611 5610 5610 5604 5604 5601 5598 5593 5593 5594 5592 5594 5595 5596 5598 5600 5600 5601 5602 5602 5602 5602 5603 5603 5604 5607 5608 5607
5605 5602 5599 5599 5609 5609 5604 5607 5601 5600 5600 5609 5603 5601 5602 5599 5593 5592 5589 5586 5583 5580 5577 5576 5574 5575 5574 5575 5577 5576 5582 5583 5583 5586 5587 5588 5589 5589 5589 5590 5593 5594 5595 5594
5593 5589 5584 5585 5601 5596 5594 5590 5589 5588 5591 5593 5589 5589 5586 5583 5581 5578 5576 5573 5568 5565 5562 5561 5560 5559 5558 5557 5558 5561 5564 5566 5569 5573 5574 5575 5575 5575 5576 5578 5581 5581 5582 5583
5578 5576 5568 5584 5590 5584 5577 5578 5579 5580 5582 5581 5581 5579 5574 5572 5569 5567 5563 5560 5557 5553 5550 5548 5546 5545 5544 5540 5541 5545 5549 5552 5555 5557 5559 5560 5561 5561 5564 5568 5568 5570 5572 5573
5561 5564 5561 5574 5580 5567 5566 5565 5573 5567 5567 5569 5571 5567 5565 5562 5560 5557 5554 5551 5548 5543 5540 5537 5535 5534 5530 5526 5525 5530 5532 5534 5537 5541 5543 5543 5547 5551 5554 5555 5557 5560 5563 5563
5550 5548 5548 5566 5562 5557 5554 5552 5564 5557 5557 5558 5557 5556 5556 5554 5552 5549 5546 5544 5541 5536 5532 5527 5527 5525 5522 5518 5513 5515 5519 5522 5524 5527 5531 5534 5538 5541 5543 5545 5548 5550 5552 5553
5536 5533 5537 5550 5546 5545 5544 5552 5547 5548 5547 5548 5547 5547 5547 5546 5545 5544 5541 5539 5536 5531 5527 5522 5519 5518 5515 5511 5510 5508 5506 5509 5515 5519 5524 5527 5530 5532 5534 5536 5538 5540 5541 5543
5527 5526 5527 5534 5535 5537 5537 5538 5534 5538 5536 5537 5537 5538 5539 5539 5539 5537 5535 5533 5530 5527 5523 5519 5516 5513 5510 5510 5507 5504 5504 5505 5508 5512 5516 5519 5522 5525 5527 5528 5530 5530 5532 5534
5513 5515 5519 5521 5524 5525 5525 5527 5528 5527 5530 5524 5529 5530 5531 5531 5531 5531 5529 5526 5524 5521 5518 5515 5512 5509 5506 5504 5504 5503 5504 5504 5505 5508 5510 5512 5516 5518 5519 5520 5520 5521 5523 5525
5500 5506 5506 5509 5511 5513 5515 5517 5518 5519 5519 5520 5521 5522 5523 5523 5523 5523 5522 5520 5518 5515 5511 5509 5507 5505 5504 5501 5499 5497 5501 5502 5501 5503 5506 5508 5509 5510 5511 5511 5512 5514 5516 5517
5488 5495 5494 5498 5499 5500 5503 5506 5509 5511 5512 5512 5513 5514 5515 5515 5515 5515 5514 5512 5509 5508 5506 5503 5500 5499 5497 5496 5495 5494 5495 5495 5495 5498 5500 5502 5503 5504 5504 5504 5506 5507 5507 5508
5481 5483 5483 5487 5490 5492 5495 5497 5499 5503 5505 5505 5505 5507 5507 5507 5506 5505 5503 5501 5499 5498 5496 5495 5494 5491 5489 5489 5489 5488 5488 5489 5489 5492 5493 5495 5496 5497 5497 5497 5498 5497 5498 5499
5470 5472 5474 5479 5482 5483 5485 5488 5492 5495 5496 5498 5499 5499 5499 5499 5498 5495 5492 5487 5483 5480 5480 5480 5482 5483 5482 5481 5482 5482 5481 5482 5481 5483 5485 5487 5487 5487 5487 5488 5488 5489 5488 5487
5458 5463 5467 5472 5474 5476 5480 5484 5486 5488 5490 5491 5493 5493 5493 5490 5487 5484 5480 5475 5466 5459 5460 5462 5466 5469 5471 5472 5473 5473 5474 5474 5474 5476 5477 5477 5477 5478 5478 5478 5478 5477 5477 5478
5454 5458 5462 5466 5468 5471 5476 5479 5481 5482 5484 5486 5486 5485 5483 5480 5477 5475 5471 5467 5462 5456 5454 5454 5455 5458 5460 5462 5465 5466 5467 5467 5468 5468 5468 5468 5468 5468 5469 5468 5467 5468 5467 5467
5450 5454 5458 5461 5465 5468 5471 5472 5474 5476 5477 5477 5477 5476 5474 5473 5470 5467 5464 5460 5456 5452 5451 5452 5452 5453 5454 5456 5457 5458 5458 5459 5459 5459 5459 5459 5459 5458 5457 5457 5457 5457 5457 5458
5449 5452 5456 5459 5462 5464 5466 5467 5468 5468 5469 5469 5469 5469 5467 5465 5463 5460 5458 5454 5452 5450 5448 5448 5447 5448 5448 5449 5450 5450 5451 5451 5451 5450 5450 5449 5448 5447 5447 5447 5447 5448 5448 5448
5450 5451 5453 5455 5456 5457 5457 5457 5458 5459 5461 5461 5462 5462 5461 5459 5456 5454 5452 5449 5447 5445 5444 5443 5443 5443 5442 5443 5443 5444 5444 5444 5443 5443 5442 5441 5440 5439 5438 5438 5438 5437 5437 5437
5448 5449 5450 5450 5450 5449 5448 5447 5450 5452 5453 5455 5456 5456 5454 5451 5449 5448 5446 5444 5442 5441 5439 5438 5438 5438 5438 5437 5437 5437 5436 5436 5435 5434 5433 5432 5431 5430 5429 5428 5427 5426 5426 5426
5443 5444 5444 5444 5444 5442 5439 5439 5443 5446 5447 5449 5449 5448 5447 5446 5444 5444 5444 5443 5441 5440 5438 5437 5436 5435 5435 5434 5433 5431 5430 5428 5426 5425 5423 5422 5421 5420 5419 5417 5416 5416 5415 5415
5439 5439 5440 5441 5442 5442 5441 5441 5441 5442 5443 5442 5442 5442 5442 5442 5441 5442 5441 5440 5439 5438 5436 5435 5434 5432 5431 5430 5428 5427 5425 5423 5421 5418 5415 5412 5410 5409 5408 5407 5406 5405 5405 5404
5434 5435 5437 5438 5439 5439 5439 5439 5438 5437 5437 5437 5438 5439 5439 5438 5439 5438 5438 5437 5436 5435 5434 5432 5431 5429 5428 5427 5425 5423 5420 5417 5414 5411 5408 5405 5402 5399 5399 5398 5397 5395 5395 5394
5431 5432 5433 5434 5435 5435 5435 5434 5434 5433 5434 5434 5435 5436 5436 5435 5435 5435 5434 5433 5432 5431 5430 5428 5427 5426 5424 5422 5420 5417 5414 5410 5407 5403 5400 5397 5395 5392 5391 5390 5389 5388 5387 5387
5428 5429 5430 5430 5430 5430 5430 5429 5429 5430 5430 5431 5432 5432 5432 5432 5432 5431 5430 5429 5428 5427 5426 5425 5423 5422 5420 5417 5414 5410 5406 5402 5399 5396 5393 5391 5389 5387 5385 5384 5383 5382 5381 5381
5423 5424 5424 5424 5424 5424 5423 5424 5425 5425 5426 5428 5428 5428 5428 5428 5427 5426 5426 5425 5424 5424 5422 5421 5419 5417 5414 5411 5407 5403 5398 5395 5391 5388 5386 5385 5383 5381 5379 5378 5377 5376 5375 5374
5417 5417 5418 5418 5418 5418 5419 5419 5420 5422 5423 5424 5424 5424 5424 5424 5423 5423 5422 5422 5421 5420 5418 5416 5414 5412 5408 5404 5400 5395 5391 5387 5384 5381 5379 5378 5377 5376 5374 5373 5372 5370 5369 5368
5411 5412 5412 5413 5413 5414 5415 5415 5416 5417 5419 5420 5420 5420 5420 5420 5419 5419 5419 5418 5417 5415 5414 5412 5410 5407 5403 5398 5393 5389 5385 5381 5378 5376 5374 5373 5372 5371 5369 5368 5367 5365 5364 5362